Location: Monteux
(44.0348°N, 4.9972°E)
Time: 17:18:18
(UTC+00:00)

NOSS 3-3 (A) - Pass Details

Date: 30 November 2020
Orbit: 819 x 1393 km, 63.4° (Epoch: 14 January)

Event Time Altitude Azimuth Distance (km) Brightness Sun altitude
Rises 18:16:46 0° 323° (NW) 3,957 7.6 -23.4°
Reaches altitude 10° 18:19:21 10° 326° (NW) 3,074 6.9 -23.8°
Maximum altitude 18:26:51 69° 50° (NE) 1,357 4.4 -25.1°
Enters shadow 18:29:57 41° 119° (ESE) 1,817 5.0 -25.7°
